VE2JOS Weather Reports


time (UTC)temp
C
wind
direction
speed
KPH
gust
KPH
rain 1hr
cm
rain 24hr
cm
rain mn
cm
humidity
%
barometer
mb
20260510220027 15 280 3.2 8.0 0.00 0.15 0.15 47
20260510215027 15 268 4.8 9.7 0.00 0.15 0.15 45
20260510214107 15 274 4.8 8.0 0.00 0.15 0.15 48
20260510213027 15 275 3.2 8.0 0.00 0.15 0.15 49
20260510212027 15 269 3.2 8.0 0.00 0.15 0.15 49
20260510211027 15 278 3.2 8.0 0.00 0.15 0.15 50
20260510210027 15 281 4.8 8.0 0.00 0.15 0.15 50
20260510205026 15 279 4.8 8.0 0.00 0.15 0.15 49
20260510204027 15 257 6.4 11.3 0.00 0.15 0.15 48
20260510203027 15 267 3.2 8.0 0.00 0.15 0.15 50
20260510202027 15 283 4.8 11.3 0.00 0.15 0.15 47
20260510201027 16 281 6.4 17.7 0.00 0.15 0.15 42
20260510200027 16 293 4.8 9.7 0.00 0.15 0.15 41
20260510195027 16 298 4.8 12.9 0.00 0.15 0.15 38
20260510194107 17 280 3.2 6.4 0.00 0.15 0.15 39
20260510193027 17 261 3.2 8.0 0.00 0.15 0.15 39
20260510192027 18 275 4.8 11.3 0.00 0.15 0.15 38
20260510191026 18 270 4.8 12.9 0.00 0.15 0.15 36
20260510190027 17 250 3.2 12.9 0.00 0.15 0.15 38
20260510185047 17 274 3.2 9.7 0.00 0.15 0.15 39
20260510184047 18 214 4.8 11.3 0.00 0.15 0.15 37
20260510183027 18 255 4.8 14.5 0.00 0.15 0.15 38
20260510182047 18 221 4.8 11.3 0.00 0.15 0.15 36
20260510181027 18 238 4.8 16.1 0.00 0.15 0.15 37
20260510180047 18 251 3.2 11.3 0.00 0.15 0.15 38
20260510175027 18 242 3.2 14.5 0.00 0.15 0.15 38
20260510174027 18 251 4.8 12.9 0.00 0.15 0.15 37
20260510173027 18 271 6.4 16.1 0.00 0.15 0.15 37
20260510172027 18 269 4.8 11.3 0.00 0.15 0.15 39
20260510171047 18 254 3.2 14.5 0.00 0.15 0.15 39
20260510170027 18 255 3.2 11.3 0.00 0.15 0.15 40
20260510165026 18 218 4.8 14.5 0.00 0.15 0.15 38
20260510164027 18 271 3.2 9.7 0.00 0.15 0.15 41
20260510163027 18 270 4.8 9.7 0.00 0.15 0.15 41
20260510162027 18 254 4.8 12.9 0.00 0.15 0.15 40
20260510161027 18 270 4.8 12.9 0.00 0.15 0.15 41
20260510160026 18 265 3.2 11.3 0.00 0.15 0.15 43
20260510155027 17 288 4.8 11.3 0.00 0.15 0.15 44
20260510154027 18 245 4.8 14.5 0.00 0.15 0.15 42
20260510153048 17 281 4.8 11.3 0.00 0.15 0.15 44
20260510152027 17 273 4.8 12.9 0.00 0.15 0.15 42
20260510151027 17 274 4.8 16.1 0.00 0.15 0.15 45
20260510150027 17 286 3.2 12.9 0.00 0.15 0.15 48
20260510145027 17 256 3.2 8.0 0.00 0.15 0.15 50
20260510144047 16 285 4.8 9.7 0.00 0.15 0.15 51
20260510143047 17 238 3.2 9.7 0.00 0.15 0.15 52
20260510142027 17 253 3.2 8.0 0.00 0.15 0.15 53
20260510141027 17 273 3.2 8.0 0.00 0.15 0.15 55
20260510140027 17 240 3.2 8.0 0.00 0.15 0.15 54
20260510135047 16 200 3.2 9.7 0.00 0.15 0.15 57
20260510134027 16 260 3.2 11.3 0.00 0.15 0.15 60
20260510133027 15 269 3.2 8.0 0.00 0.15 0.15 58
20260510132028 16 258 3.2 8.0 0.00 0.15 0.15 62
20260510131027 16 251 1.6 6.4 0.00 0.15 0.15 64
20260510130027 15 248 1.6 9.7 0.00 0.15 0.15 68
20260510125026 14 253 1.6 6.4 0.00 0.15 0.15 68
20260510124027 13 243 3.2 9.7 0.00 0.15 0.15 70
20260510123028 14 245 1.6 6.4 0.00 0.15 0.15 71
20260510122027 13 230 3.2 11.3 0.00 0.15 0.15 72
20260510121027 13 250 1.6 8.0 0.00 0.15 0.15 74
20260510120046 13 245 1.6 4.8 0.00 0.15 0.15 78
20260510115026 12 261 3.2 11.3 0.00 0.15 0.15 79
20260510114027 13 240 1.6 4.8 0.00 0.15 0.15 83
20260510113027 12 249 1.6 6.4 0.00 0.15 0.15 85
20260510112027 12 252 1.6 3.2 0.00 0.15 0.15 89
20260510111026 12 240 1.6 8.0 0.00 0.15 0.15 89
20260510110028 12 238 1.6 8.0 0.00 0.15 0.15 90
20260510105026 12 243 1.6 4.8 0.00 0.15 0.15 91
20260510104027 12 240 1.6 9.7 0.00 0.15 0.15 90
20260510103027 12 231 1.6 8.0 0.00 0.15 0.15 90
20260510102046 11 243 1.6 4.8 0.00 0.15 0.15 92
20260510101027 11 228 1.6 6.4 0.00 0.15 0.15 92
20260510100047 11 252 1.6 9.7 0.00 0.15 0.15 92
20260510095027 11 257 1.6 8.0 0.00 0.15 0.15 92
20260510094026 11 250 1.6 8.0 0.00 0.15 0.15 92
20260510093027 11 248 1.6 4.8 0.00 0.15 0.15 93
20260510092027 11 247 1.6 3.2 0.00 0.15 0.15 93
20260510091026 11 241 1.6 6.4 0.00 0.15 0.15 93
20260510090047 11 226 1.6 9.7 0.00 0.15 0.15 94
20260510085026 11 228 1.6 4.8 0.00 0.15 0.15 95
20260510084027 11 213 1.6 6.4 0.00 0.15 0.15 95
20260510083027 11 199 3.2 8.0 0.00 0.15 0.15 95
20260510082026 11 201 1.6 6.4 0.00 0.15 0.15 95
20260510081028 11 195 3.2 8.0 0.00 0.15 0.15 95
20260510080026 11 178 3.2 11.3 0.00 0.15 0.15 96
20260510075026 11 190 3.2 11.3 0.00 0.15 0.15 96
20260510074026 11 175 4.8 11.3 0.00 0.15 0.15 96
20260510073026 11 202 4.8 14.5 0.00 0.15 0.15 96
20260510072027 11 162 4.8 12.9 0.05 0.15 0.15 96
20260510071026 11 203 4.8 9.7 0.13 0.15 0.15 96
20260510070029 11 183 3.2 11.3 0.15 0.15 0.15 96
20260510065026 11 180 6.4 12.9 0.15 0.15 0.15 96
20260510064026 11 218 4.8 14.5 0.15 0.15 0.15 95
20260510063106 11 191 4.8 11.3 0.15 0.15 0.15 94
20260510062106 11 145 6.4 16.1 0.10 0.10 0.10 91
20260510061047 11 183 4.8 12.9 0.03 0.03 0.03 87
20260510060026 12 182 4.8 9.7 0.00 0.00 0.00 80
20260510055026 12 163 3.2 9.7 0.00 0.00 0.00 79
20260510054026 11 213 3.2 8.0 0.00 0.00 0.00 79
20260510053026 11 240 1.6 4.8 0.00 0.00 0.00 79
20260510052026 11 183 3.2 8.0 0.00 0.00 0.00 79
20260510051046 11 237 1.6 4.8 0.00 0.00 0.00 79
20260510050027 11 225 1.6 8.0 0.00 0.00 0.00 78
20260510045026 11 243 1.6 4.8 0.00 0.00 0.00 78
20260510044026 11 242 1.6 8.0 0.00 0.00 0.00 78
20260510043026 11 145 3.2 9.7 0.00 0.00 0.00 77
20260510042026 11 180 3.2 8.0 0.00 0.00 0.00 77
20260510041026 11 189 3.2 9.7 0.00 0.00 0.00 77
20260510040046 11 139 3.2 9.7 0.00 0.00 0.00 76
20260510035026 11 179 3.2 6.4 0.00 0.00 0.00 76
20260510034026 11 144 4.8 11.3 0.00 0.00 0.00 75
20260510033026 11 139 3.2 12.9 0.00 0.00 0.00 75
20260510032106 11 123 4.8 12.9 0.00 0.00 0.00 74
20260510031046 11 148 3.2 8.0 0.00 0.00 0.00 74
20260510030026 11 255 3.2 11.3 0.00 0.00 0.00 74
20260510025526 11 197 3.2 8.0 0.00 0.00 0.00 74
20260510024526 11 180 3.2 9.7 0.00 0.00 0.00 73
20260510023526 11 132 4.8 8.0 0.00 0.00 0.00 73
20260510022527 11 165 1.6 8.0 0.00 0.00 0.00 72
20260510021526 12 191 1.6 4.8 0.00 0.00 0.00 72
20260510020526 12 184 3.2 9.7 0.00 0.00 0.00 71
20260510015526 12 157 3.2 8.0 0.00 0.00 0.00 70
20260510014526 12 209 3.2 8.0 0.00 0.00 0.00 70
20260510013526 12 136 3.2 8.0 0.00 0.00 0.00 69
20260510012526 12 167 4.8 12.9 0.00 0.00 0.00 68
20260510011527 12 167 1.6 11.3 0.00 0.00 0.00 68
20260510010526 13 229 1.6 4.8 0.00 0.00 0.00 67
20260510005526 13 192 4.8 12.9 0.00 0.00 0.00 66
20260510004526 13 229 1.6 8.0 0.00 0.00 0.00 65
20260510003526 13 195 3.2 14.5 0.00 0.00 0.00 64
20260510002527 13 171 6.4 11.3 0.00 0.00 0.00 63
20260510001526 14 167 6.4 14.5 0.00 0.00 0.00 62
20260510000526 14 217 4.8 17.7 0.00 0.00 0.00 61
20260509235526 14 188 1.6 8.0 0.00 0.00 0.00 60
20260509234526 15 178 6.4 14.5 0.00 0.00 0.00 57
20260509233546 15 158 8.0 14.5 0.00 0.00 0.00 55
20260509232526 15 162 4.8 14.5 0.00 0.00 0.00 53
20260509231527 16 150 4.8 11.3 0.00 0.00 0.00 51
20260509230526 16 123 8.0 20.9 0.00 0.00 0.00 50
20260509225526 16 189 6.4 17.7 0.00 0.00 0.00 48
20260509224526 17 165 6.4 12.9 0.00 0.00 0.00 46
20260509223526 17 199 4.8 11.3 0.00 0.00 0.00 45
20260509222526 17 172 4.8 12.9 0.00 0.00 0.00 44
20260509221526 18 157 6.4 14.5 0.00 0.00 0.00 40